Location: Bremen
(53.0793°N, 8.8017°E)
Time: 12:16:46
(UTC+02:00)

Altair - Pass Details

Date: 16 April 2024
Orbit: 1501 x 1682 km, 47.2° (Epoch: 17 May)

Event Time Altitude Azimuth Distance (km) Brightness Sun altitude
Rises 01:40:19 0° 274° (W) 4,838 10.1 -26.6°
Reaches altitude 10° 01:43:32 10° 270° (W) 3,827 9.5 -26.6°
Maximum altitude 01:52:52 56° 197° (SSW) 1,816 7.4 -26.4°
Drops below altitude 10° 02:01:52 10° 122° (ESE) 3,690 9.3 -26.2°
Sets 02:04:56 0° 119° (ESE) 4,655 9.9 -26.1°
